OneWeb SL0368

operational
NORAD ID: 49294 Int'l Des: 2021-090 Owner: ONEWEBN Country: UK Constellation: oneweb
LEOCIRCULARPOLARONEWEB_TYPE

OneWeb SL0368について

説明を読み込み中...

リアルタイム位置

3D地球を読み込み中...

次回通過

高度履歴

Altitude vs Time

uPlot chart will show altitude changes over time

軌道要素

1 49294U 21090R 25258.21482500 -.00000024 00000-0 -90765-4 0 9993
2 49294 87.9266 329.2910 0001723 73.3703 286.7619 13.20772167194683
Epoch: Sep 15, 2025 • Age: 12 hours

現在のステータス

高度 1185.6 km
速度 7.26 km/s
衛星直下点 31.86°N, 99.17°W
打ち上げ日 Oct 14, 2021
運用期間 3.9 years
タイプ internet

技術仕様

分類 Payload
質量 148.00 kg
乾燥質量 140.00 kg
総質量 148.00 kg
長さ 1.30 m
直径 1.00 m
スパン 5.00 m
形状 Trapezoid+2 pan
製造者 ONEWUS
バスタイプ ARROW
フェーズステータス In Orbit
所有者/国 ONEWEBN/UK

大規模コンステレーション

Loading constellations...